This is the latest recevied weather packets stored in our database for station/object KM5R. If no packets are shown the sender has not sent any weather packets the latest 10 day(s).
| Time | Temp. | Humidity | Pressure | Rain* | Wind** | Luminosity | Snow |
|---|---|---|---|---|---|---|---|
| 1777741101 | 20° C | 46% | 1024.9 hPa | 0 mm | - | 693 W/m² | - |
| 1777740798 | 20° C | 51% | 1024.8 hPa | 0 mm | - | 679 W/m² | - |
| 1777740495 | 20° C | 48% | 1024.7 hPa | 0 mm | - | 672 W/m² | - |
| 1777740192 | 19.44° C | 46% | 1024.8 hPa | 0 mm | - | 667 W/m² | - |
| 1777739888 | 19.44° C | 48% | 1025 hPa | 0 mm | - | 657 W/m² | - |
| 1777739585 | 19.44° C | 50% | 1025 hPa | 0 mm | - | 635 W/m² | - |
| 1777739283 | 19.44° C | 52% | 1024.9 hPa | 0 mm | - | 603 W/m² | - |
| 1777738979 | 18.89° C | 53% | 1025.1 hPa | 0 mm | - | 621 W/m² | - |
| 1777738675 | 18.89° C | 58% | 1024.8 hPa | 0 mm | - | 594 W/m² | - |
| 1777738371 | 18.89° C | 55% | 1024.8 hPa | 0 mm | - | 589 W/m² | - |
| 1777738070 | 18.33° C | 57% | 1024.7 hPa | 0 mm | - | 580 W/m² | - |
| 1777737768 | 18.89° C | 56% | 1024.8 hPa | 0 mm | - | 561 W/m² | - |
| 1777737467 | 18.33° C | 58% | 1024.8 hPa | 0 mm | - | 551 W/m² | - |
| 1777737164 | 18.33° C | 56% | 1024.8 hPa | 0 mm | - | 523 W/m² | - |
| 1777736859 | 18.33° C | 59% | 1024.7 hPa | 0 mm | - | 515 W/m² | - |
| 1777736246 | 17.78° C | 61% | 1024.8 hPa | 0 mm | - | 500 W/m² | - |
| 1777735943 | 17.78° C | 62% | 1024.6 hPa | 0 mm | - | 472 W/m² | - |
| 1777735640 | 17.22° C | 64% | 1024.9 hPa | 0 mm | - | 473 W/m² | - |
| 1777735337 | 17.78° C | 62% | 1024.8 hPa | 0 mm | - | 466 W/m² | - |
| 1777735035 | 17.22° C | 64% | 1024.8 hPa | 0 mm | - | 438 W/m² | - |
| 1777734732 | 17.78° C | 63% | 1024.7 hPa | 0 mm | - | 426 W/m² | - |
| 1777734429 | 17.78° C | 63% | 1024.7 hPa | 0 mm | - | 401 W/m² | - |
| 1777734126 | 17.22° C | 63% | 1024.7 hPa | 0 mm | - | 399 W/m² | - |
| 1777733822 | 16.67° C | 64% | 1024.6 hPa | 0 mm | - | 389 W/m² | - |
| 1777733215 | 16.67° C | 62% | 1024.6 hPa | 0 mm | - | 362 W/m² | - |
* Rain latest hour (hover to see other rain measurements)
** Current wind speed in m/s (hover to see current wind gust speed)